AirNav   Bose ProFlight Series 2 Headset
 
 1401 users online  

2TN4 Shoemaker-Shelby Forest Airport
Millington, Tennessee, USA

GOING TO MILLINGTON?


FAA INFORMATION EFFECTIVE 02 JANUARY 2020

Location

FAA Identifier: 2TN4
Lat/Long: 35-19-05.0000N 090-02-07.0000W
35-19.083333N 090-02.116667W
35.3180556,-90.0352778
(estimated)
Elevation: 335 ft. / 102 m (estimated)
Variation: 01E (1995)
From city: 8 miles SW of MILLINGTON, TN
Time zone: UTC -6 (UTC -5 during Daylight Saving Time)
Zip code: 38053

Airport Operations

Airport use: Private use. Permission required prior to landing
Activation date: 03/1999
Control tower: no
ARTCC: MEMPHIS CENTER
FSS: JACKSON FLIGHT SERVICE STATION
Attendance: UNATNDD
Wind indicator: yes
Segmented circle: no

Airport Communications

WX AWOS-A at 2M8 (6 nm SE): 122.8 ((901) 873-0903)
WX AWOS-A at M01 (7 nm S): 122.7 ((901) 354-9296)
WX AWOS-3 at NQA (8 nm E): 118.925 (901-873-3630)
WX ASOS at AWM (15 nm SW): 118.175 (870-733-9987)
WX ASOS at MEM (17 nm S): 127.75 (901-842-8483)

Nearby radio navigation aids

VOR radial/distance  VOR name  Freq  Var
MEMr351/18.4MEMPHIS VORTAC117.5001E
GQEr091/21.7GILMORE VOR/DME113.0004E

Airport Services

Runway Information

Runway 16/34

Dimensions: 2785 x 40 ft. / 849 x 12 m
Surface: concrete
RUNWAY 16  RUNWAY 34
Traffic pattern: leftleft
Obstructions: 50 ft. trees, 2600 ft. from runway50 ft. trees, 2600 ft. from runway

Airport Ownership and Management from official FAA records

Ownership: Privately-owned
Owner: JAMES O'FARRELL SHOEMAKER
847 CHASER DRIVE
MILLINGTON, TN 38053
Phone 901-357-6151
Manager: JAMES O'FARRELL SHOEMAKER
847 CHASER DRIVE
MILLINGTON, TN 38053
Phone 901-357-6151
SHOEMAKERDDS@YAHOO.COM

Airport Operational Statistics

Aircraft based on the field: 9
Single engine airplanes: 4
Multi engine airplanes: 1
Jet airplanes: 3
Ultralights: 1
    

Additional Remarks

FOR CD CTC MEMPHIS APCH AT 901-842-8457.

Instrument Procedures

There are no published instrument procedures at 2TN4.

Some nearby airports with instrument procedures:

2M8 - Charles W Baker Airport (6 nm SE)
M01 - General Dewitt Spain Airport (7 nm S)
KNQA - Millington-Memphis Airport (8 nm E)
KAWM - West Memphis Municipal Airport (15 nm SW)
KMEM - Memphis International Airport (17 nm S)
 
Loc | Ops | Rwys | IFR | FBO | Links
Com | Nav | Svcs | Stats | Notes
Area around 2TN4 (Shoemaker-Shelby Forest Airport)
 
Road maps at: MapQuest Bing Google
 
Aerial photo
No photo
 
Sectional chart

 
Airport distance calculator
Flying to Shoemaker-Shelby Forest Airport? Find the distance to fly.

From to 2TN4

Sunrise and sunset
Times for 29-Jan-2020
 Local
(UTC-6)
 Zulu
(UTC)
Morning civil twilight06:3612:36
Sunrise07:0313:03
Sunset17:2423:24
Evening civil twilight17:5123:51

Current date and time
Zulu (UTC)  29-Jan-2020 17:33:31
Local (UTC-6)  29-Jan-2020 11:33:31
 
METAR
KNQA 
8nm E 
291650Z 04005KT 6SM BR BKN011 OVC055 06/04 A3004
KAWM 
15nm SW 
291721Z AUTO 05007KT 5SM HZ SCT010 BKN120 09/06 A3001 RMK AO2 T00890061
KMEM 
15nm S 
291654Z 04009KT 8SM FEW010 SCT060 BKN110 09/04 A3002 RMK AO2 SLP166 T00890044
TAF
KMEM 
15nm S 
291157Z 2912/3018 06007KT P6SM VCSH SCT040 OVC070 FM291500 04006KT 6SM BR VCSH SCT030 OVC060 TEMPO 2916/2918 5SM -SHRA BKN025 FM292300 02006KT P6SM VCSH FEW015 BKN030 FM300100 02007KT P6SM VCSH OVC011 FM300900 02005KT 6SM BR OVC009 FM301500 02006KT P6SM OVC012
NOTAMs
Click for the latest NOTAMs
NOTAMs are issued by the DoD/FAA and will open in a separate window not controlled by AirNav.

 

 
 

Would you like to see your business listed on this page?

 If your business provides an interesting product or service to pilots, flight crews, aircraft, or users of the Shoemaker-Shelby Forest Airport, you should consider listing it here.  To start the listing process, click on the button below
 
Add a business
 

Other Pages about Shoemaker-Shelby Forest Airport

Update a link
 
Copyright © AirNav, LLC. All rights reserved. Privacy Policy  Contact